Location: El Bakhil
(32.7726°N, 5.5387°W)
Time: 05:52:01
(UTC+00:00)

Envisat - Pass Details

Date: 11 December 2021
Orbit: 764 x 766 km, 98.2° (Epoch: 25 January)

Event Time Altitude Azimuth Distance (km) Brightness Sun altitude
Rises 06:14:20 0° 356° (N) 3,235 6.0 -12.4°
Reaches altitude 10° 06:17:02 10° 342° (NNW) 2,305 5.1 -11.9°
Maximum altitude 06:20:59 23° 291° (WNW) 1,570 4.0 -11.1°
Drops below altitude 10° 06:24:55 10° 240° (WSW) 2,295 5.1 -10.3°
Sets 06:27:37 0° 226° (SW) 3,216 6.0 -9.8°
